Location: Unspecified
(33.9239°N, 118.0544°W)
Time: 15:53:03
(UTC-07:00)

Cosmos 1674 - Visible Passes

Search period start: 19 April 2014 00:00
Search period end: 29 April 2014 00:00
Orbit: 517 x 546 km, 82.5° (Epoch: 19 April)

Date Brightness Start Highest point End Pass type
(mag) Time Alt. Az. Time Alt. Az. Time Alt. Az.
19 Apr 5.9 05:37:59 10° SE 05:40:34 17° E 05:43:09 10° NE visible
20 Apr 5.9 05:28:05 10° SE 05:30:30 16° E 05:32:55 10° NE visible
21 Apr 5.9 05:18:10 10° ESE 05:20:24 15° E 05:22:39 10° NE visible
22 Apr 6.0 05:08:16 10° ESE 05:10:18 14° E 05:12:20 10° NE visible
23 Apr 6.0 04:58:23 10° ESE 05:00:11 13° E 05:01:58 10° ENE visible
24 Apr 6.0 04:48:32 10° ESE 04:50:02 12° E 04:51:32 10° ENE visible
25 Apr 6.1 04:38:46 10° ESE 04:39:53 11° E 04:41:00 10° ENE visible
26 Apr 6.2 04:29:15 10° E 04:29:43 10° E 04:30:10 10° E visible
